CW5469 Weather Reports


time (UTC)temp
F
wind
direction
speed
knots
gust
knots
rain 1hr
in
rain 24hr
in
rain mn
in
humidity
%
barometer
mb
20260508064951 42 323 2.6 7.0 0.00 0.05 0.00 62 1021.6
20260508062951 42 323 1.7 6.1 0.00 0.05 0.00 62 1021.5
20260508061952 42 323 1.7 3.5 0.00 0.05 0.00 65 1021.4
20260508060952 42 323 1.7 5.2 0.00 0.05 0.00 64 1021.5
20260508055956 42 323 2.6 7.0 0.00 0.05 0.00 63 1021.3
20260508054952 42 323 3.5 7.0 0.00 0.05 0.05 63 1021.3
20260508051952 42 323 4.3 7.8 0.00 0.05 0.05 66 1021.3
20260508050952 42 328 3.5 9.6 0.00 0.05 0.05 67 1021.3
20260508045953 42 309 3.5 8.7 0.00 0.05 0.05 68 1021.3
20260508044952 40 307 2.6 7.8 0.00 0.05 0.05 75 1021.1
20260508043952 39 339 0.9 3.5 0.00 0.05 0.05 85 1021.0
20260508042952 38 0 0.0 0.0 0.00 0.05 0.05 88 1021.0
20260508041952 38 0 0.0 0.0 0.00 0.05 0.05 89 1021.1
20260508040952 38 0 0.0 0.0 0.00 0.05 0.05 89 1021.2
20260508035951 38 0 0.0 0.0 0.00 0.05 0.05 89 1021.2
20260508034952 38 0 0.0 0.0 0.00 0.05 0.05 89 1021.2
20260508032952 38 0 0.0 0.0 0.00 0.05 0.05 88 1020.9
20260508025952 38 122 0.9 2.6 0.00 0.05 0.05 88 1020.7
20260508024952 38 0 0.0 1.7 0.00 0.05 0.05 88 1020.7
20260508023952 38 0 0.0 3.5 0.00 0.05 0.05 88 1020.7
20260508022952 38 0 0.0 2.6 0.00 0.05 0.05 87 1020.6
20260508021951 38 120 0.9 6.1 0.00 0.05 0.05 87 1020.6
20260508020956 39 323 1.7 5.2 0.02 0.05 0.05 86 1020.6
20260508014952 39 0 0.0 1.7 0.02 0.05 0.05 85 1020.5
20260508013952 39 0 0.0 2.6 0.02 0.05 0.05 85 1020.5
20260508012952 39 314 2.6 8.7 0.02 0.05 0.05 81 1020.7
20260508011952 40 311 6.1 14.8 0.02 0.05 0.05 76 1020.9
20260508005952 45 281 5.2 10.4 0.01 0.03 0.03 59 1020.5
20260508003952 46 276 5.2 9.6 0.01 0.03 0.03 57 1020.3
20260508002954 46 299 7.0 16.5 0.01 0.03 0.03 57 1020.3
20260508001951 47 318 8.7 21.7 0.01 0.03 0.03 53 1020.3
20260508000952 49 316 9.6 21.7 0.01 0.04 0.03 48 1020.1
20260507235952 50 312 5.2 12.2 0.00 0.03 0.02 43 1019.5
20260507234952 51 321 6.1 13.9 0.00 0.03 0.02 42 1019.2
20260507231951 51 315 4.3 12.2 0.00 0.03 0.02 45 1019.4
20260507230952 50 321 6.1 12.2 0.00 0.03 0.02 44 1019.4
20260507225952 50 333 7.8 16.5 0.00 0.03 0.02 44 1019.7
20260507224952 51 317 7.8 19.1 0.00 0.03 0.02 41 1019.7
20260507222952 54 310 7.0 14.8 0.00 0.04 0.02 40 1019.7
20260507221952 52 313 9.6 19.1 0.00 0.04 0.02 39 1019.6
20260507220952 52 312 8.7 15.6 0.00 0.04 0.02 38 1019.8
20260507215952 52 310 8.7 15.6 0.00 0.04 0.02 44 1019.9
20260507214952 50 313 8.7 15.6 0.00 0.04 0.02 40 1020.0
20260507213952 50 313 6.1 18.2 0.00 0.05 0.02 44 1020.2
20260507211952 51 303 7.0 15.6 0.00 0.05 0.02 45 1020.6
20260507210952 50 312 9.6 20.0 0.00 0.05 0.02 42 1020.7
20260507205952 50 305 8.7 15.6 0.00 0.06 0.02 43 1020.8
20260507203952 50 318 7.8 18.2 0.00 0.09 0.02 45 1020.9
20260507202956 49 314 8.7 16.5 0.00 0.10 0.02 45 1021.1
20260507201952 49 310 10.4 20.9 0.00 0.12 0.02 44 1021.3
20260507200951 49 311 7.8 18.2 0.00 0.14 0.02 46 1021.3
20260507195952 49 312 7.0 15.6 0.00 0.15 0.02 47 1021.6
20260507194952 48 312 6.1 15.6 0.00 0.16 0.02 48 1021.6
20260507193952 46 311 7.8 14.8 0.00 0.17 0.02 48 1021.8
20260507192952 48 311 7.8 15.6 0.00 0.18 0.02 50 1021.8
20260507191952 45 310 8.7 20.0 0.00 0.19 0.02 48 1021.9
20260507185953 44 309 8.7 16.5 0.00 0.22 0.02 49 1022.1
20260507180954 44 317 6.1 12.2 0.00 0.32 0.02 52 1022.2
20260507174953 43 321 3.5 9.6 0.00 0.32 0.02 57 1022.5
20260507173953 42 321 3.5 9.6 0.00 0.32 0.02 56 1022.6
20260507172954 42 323 3.5 8.7 0.01 0.32 0.02 58 1022.6
20260507171953 42 344 5.2 13.0 0.01 0.32 0.02 55 1022.6
20260507170956 43 334 4.3 10.4 0.01 0.32 0.02 57 1022.7
20260507165954 42 342 3.5 8.7 0.01 0.32 0.02 57 1022.8
20260507164953 41 335 2.6 9.6 0.01 0.32 0.02 61 1022.9
20260507163954 40 345 2.6 8.7 0.01 0.32 0.02 61 1023.0
20260507162953 38 333 4.3 7.8 0.01 0.31 0.01 62 1023.0
20260507161954 39 330 3.5 7.8 0.01 0.31 0.01 59 1023.0
20260507160953 39 327 2.6 7.8 0.01 0.31 0.01 57 1023.0
20260507155954 39 328 1.7 7.0 0.01 0.31 0.01 57 1023.0
20260507154953 37 335 0.9 3.5 0.01 0.31 0.01 63 1023.2
20260507153954 37 335 0.9 2.6 0.01 0.31 0.01 66 1023.4
20260507152954 35 328 0.9 2.6 0.00 0.30 0.00 65 1023.7
20260507151953 34 328 0.9 2.6 0.00 0.30 0.00 67 1023.8
20260507150953 32 328 0.9 1.7 0.00 0.30 0.00 68 1024.1
20260507145954 32 328 1.7 3.5 0.00 0.30 0.00 74 1024.2
20260507144954 31 327 0.9 3.5 0.00 0.30 0.00 74 1024.2
20260507143953 29 328 0.9 2.6 0.00 0.30 0.00 77 1024.5
20260507142954 28 327 1.7 3.5 0.00 0.30 0.00 77 1024.5
20260507141955 27 327 1.7 3.5 0.00 0.30 0.00 79 1024.4
20260507140953 26 335 0.9 1.7 0.00 0.30 0.00 81 1024.5
20260507133953 24 0 0.0 0.0 0.00 0.30 0.00 84 1024.6
20260507132954 23 0 0.0 0.0 0.00 0.30 0.00 84 1024.7
20260507131953 24 0 0.0 0.0 0.00 0.30 0.00 85 1024.7
20260507130957 22 327 0.9 1.7 0.00 0.30 0.00 87 1024.7
20260507125954 20 327 0.9 2.6 0.00 0.30 0.00 87 1024.8
20260507124954 20 0 0.0 0.0 0.00 0.30 0.00 87 1024.5
20260507123953 20 0 0.0 0.0 0.00 0.30 0.00 87 1024.5
20260507121955 20 0 0.0 0.0 0.00 0.30 0.00 89 1024.5
20260507120954 18 0 0.0 1.7 0.00 0.30 0.00 89 1024.5
20260507115958 18 0 0.0 0.0 0.00 0.30 0.00 88 1024.6
20260507114954 18 0 0.0 0.0 0.00 0.30 0.00 87 1024.5
20260507113953 19 0 0.0 0.0 0.00 0.30 0.00 87 1024.3
20260507112953 19 0 0.0 0.0 0.00 0.30 0.00 87 1024.4
20260507111953 19 0 0.0 0.0 0.00 0.30 0.00 86 1024.2
20260507110954 20 0 0.0 0.0 0.00 0.30 0.00 85 1024.1
20260507104953 20 0 0.0 0.0 0.00 0.30 0.00 85 1024.1
20260507103953 20 0 0.0 0.0 0.00 0.30 0.00 84 1024.1
20260507102955 20 0 0.0 0.0 0.00 0.30 0.00 84 1024.2
20260507101953 20 0 0.0 0.0 0.00 0.30 0.00 83 1024.2
20260507100953 20 0 0.0 0.0 0.00 0.30 0.00 85 1024.2
20260507095953 20 0 0.0 0.0 0.00 0.30 0.00 84 1024.3
20260507093954 22 0 0.0 0.0 0.00 0.30 0.00 82 1024.1
20260507092953 21 0 0.0 0.0 0.00 0.30 0.00 82 1024.2
20260507091954 22 0 0.0 0.0 0.00 0.30 0.00 82 1024.1
20260507090953 21 0 0.0 0.0 0.00 0.30 0.00 82 1024.2
20260507085953 22 0 0.0 0.0 0.00 0.30 0.00 84 1024.3
20260507084954 21 0 0.0 0.0 0.00 0.30 0.00 85 1024.4
20260507083953 21 0 0.0 0.0 0.00 0.30 0.00 85 1024.4
20260507082953 21 0 0.0 0.0 0.00 0.30 0.00 86 1024.3
20260507081953 21 0 0.0 0.0 0.00 0.30 0.00 85 1024.4
20260507080954 21 0 0.0 0.0 0.00 0.30 0.00 86 1024.5
20260507075954 21 0 0.0 0.0 0.00 0.30 0.00 84 1024.4
20260507074953 22 0 0.0 0.0 0.00 0.30 0.00 82 1024.5
20260507073954 22 0 0.0 0.0 0.00 0.30 0.00 82 1024.6
20260507072954 23 0 0.0 0.0 0.00 0.30 0.00 79 1024.6
20260507070953 23 0 0.0 0.0 0.00 0.30 0.00 81 1024.6
20260507065954 24 0 0.0 0.9 0.00 0.30 0.00 79 1024.6